User: anonymous   Login
Location: Fiddletown
(38.4917°N, 120.6633°W)
Time: 12:55:46
(UTC-07:00)
Language:

Envisat - Orbit

View from above orbital plane
View from above orbital plane
View from above satellite
View from above satellite

Ground track
Ground track

The orbit data is extracted from the following two-line orbital elements,

1 27386U 02009A   16181.09296919 -.00000005  00000-0  12252-4 0  9991
2 27386  98.2818 234.0863 0001165  87.2204 272.9125 14.37869746750337
Epoch (UTC): 29 June 2016 02:13:52
Eccentricity: 0.0001165
inclination: 98.2818°
perigee height: 765 km
apogee height: 766 km
right ascension of ascending node: 234.0863°
argument of perigee: 87.2204°
revolutions per day: 14.37869746
mean anomaly at epoch: 272.9125°
orbit number at epoch: 75033

The dashed part of the orbit path shows where the satellite is in the earth's shadow,  

DLR